FW0256 Weather Reports


time (UTC)temp
C
wind
direction
speed
KPH
gust
KPH
rain 1hr
cm
rain 24hr
cm
rain mn
cm
humidity
%
barometer
mb
20260507142011 16 0 1.6 12.9 0.00 0.00 0.00 47 1014.6
20260507141539 16 360 1.6 9.7 0.00 0.00 0.00 50 1014.7
20260507141012 16 360 3.2 9.7 0.00 0.00 0.00 48 1014.7
20260507140510 16 360 0.0 12.9 0.00 0.00 0.00 48 1014.8
20260507140028 16 360 4.8 12.9 0.00 0.00 0.00 47 1014.9
20260507135510 16 360 3.2 8.0 0.00 0.00 0.00 47 1014.7
20260507135009 17 25 1.6 8.0 0.00 0.00 0.00 48 1014.9
20260507134530 17 0 0.0 8.0 0.00 0.00 0.00 48 1014.7
20260507134011 17 360 1.6 12.9 0.00 0.00 0.00 48 1015.0
20260507133512 16 360 3.2 12.9 0.00 0.00 0.00 48 1015.0
20260507133030 16 360 1.6 9.7 0.00 0.00 0.00 50 1015.1
20260507132511 16 360 3.2 9.7 0.00 0.00 0.00 51 1015.0
20260507132013 15 360 0.0 8.0 0.00 0.00 0.00 51 1014.9
20260507131532 15 0 1.6 8.0 0.00 0.00 0.00 52 1015.0
20260507131014 15 360 3.2 8.0 0.00 0.00 0.00 51 1015.0
20260507130508 15 360 1.6 8.0 0.00 0.00 0.00 52 1015.1
20260507130038 15 360 1.6 8.0 0.00 0.00 0.00 52 1015.1
20260507125511 15 360 1.6 8.0 0.00 0.00 0.00 51 1015.1
20260507125008 15 360 0.0 12.9 0.00 0.00 0.00 51 1015.1
20260507124530 16 360 0.0 12.9 0.00 0.00 0.00 51 1015.1
20260507124008 16 360 4.8 12.9 0.00 0.00 0.00 51 1015.1
20260507123511 15 0 1.6 8.0 0.00 0.00 0.00 52 1015.1
20260507123032 15 360 3.2 8.0 0.00 0.00 0.00 51 1015.1
20260507122509 15 360 1.6 9.7 0.00 0.00 0.00 52 1015.1
20260507122013 15 360 3.2 12.9 0.00 0.00 0.00 52 1015.0
20260507121528 15 360 3.2 12.9 0.00 0.00 0.00 52 1015.1
20260507121012 15 360 1.6 14.5 0.00 0.00 0.00 54 1015.1
20260507120508 15 360 1.6 14.5 0.00 0.00 0.00 52 1015.2
20260507120028 15 360 6.4 14.5 0.00 0.00 0.00 50 1015.2
20260507115508 16 360 1.6 8.0 0.00 0.00 0.00 47 1015.3
20260507115011 16 360 3.2 9.7 0.00 0.00 0.00 49 1015.3
20260507114529 16 211 0.0 12.9 0.00 0.00 0.00 51 1015.2
20260507114009 16 360 3.2 12.9 0.00 0.00 0.00 53 1015.2
20260507113509 15 360 1.6 8.0 0.00 0.00 0.00 53 1015.2
20260507113027 15 360 3.2 9.7 0.00 0.00 0.00 55 1015.3
20260507112511 16 360 1.6 9.7 0.00 0.00 0.00 55 1015.4
20260507112013 16 360 3.2 9.7 0.00 0.00 0.00 54 1015.4
20260507111529 16 360 0.0 12.9 0.00 0.00 0.00 52 1015.3
20260507111012 16 360 3.2 12.9 0.00 0.00 0.00 56 1015.3
20260507110509 15 360 1.6 14.5 0.00 0.00 0.00 57 1015.4
20260507110028 15 360 1.6 14.5 0.00 0.00 0.00 57 1015.4
20260507105508 15 360 8.0 14.5 0.00 0.00 0.00 54 1015.5
20260507105013 15 0 3.2 12.9 0.00 0.00 0.00 57 1015.6
20260507104530 15 360 3.2 9.7 0.00 0.00 0.00 59 1015.6
20260507104012 15 360 1.6 9.7 0.00 0.00 0.00 60 1015.6
20260507103509 14 360 1.6 16.1 0.00 0.00 0.00 61 1015.6
20260507103029 14 360 3.2 16.1 0.00 0.00 0.00 61 1015.7
20260507102510 14 360 6.4 16.1 0.00 0.00 0.00 60 1015.7
20260507102011 14 360 1.6 8.0 0.00 0.00 0.00 62 1015.7
20260507101530 14 360 1.6 9.7 0.00 0.00 0.00 61 1015.7
20260507101011 14 360 3.2 9.7 0.00 0.00 0.00 63 1015.9
20260507100511 14 360 1.6 16.1 0.00 0.00 0.00 64 1015.8
20260507100036 13 360 3.2 16.1 0.00 0.00 0.00 64 1015.9
20260507095510 13 360 3.2 12.9 0.00 0.00 0.00 65 1015.8
20260507095013 13 360 3.2 12.9 0.00 0.00 0.00 66 1015.8
20260507094531 13 360 3.2 12.9 0.00 0.00 0.00 66 1015.7
20260507094013 13 0 1.6 17.7 0.00 0.00 0.00 68 1015.8
20260507093511 12 360 1.6 17.7 0.00 0.00 0.00 69 1015.8
20260507093028 12 360 1.6 12.9 0.00 0.00 0.00 70 1015.8
20260507092509 12 360 4.8 14.5 0.00 0.00 0.00 68 1015.8
20260507092010 12 360 3.2 16.1 0.00 0.00 0.00 68 1015.9
20260507091534 12 360 1.6 16.1 0.00 0.00 0.00 70 1015.9
20260507091015 12 360 3.2 16.1 0.00 0.00 0.00 71 1015.9
20260507090508 12 360 3.2 14.5 0.00 0.00 0.00 72 1016.0
20260507090029 12 360 6.4 16.1 0.00 0.00 0.00 71 1016.0
20260507085510 12 360 3.2 16.1 0.00 0.00 0.00 71 1015.9
20260507085010 12 360 6.4 16.1 0.00 0.00 0.00 70 1016.0
20260507084531 12 121 3.2 14.5 0.00 0.00 0.00 71 1016.0
20260507084013 12 360 4.8 14.5 0.00 0.00 0.00 71 1015.9
20260507083509 12 0 0.0 12.9 0.00 0.00 0.00 71 1015.9
20260507083028 12 360 3.2 12.9 0.00 0.00 0.00 71 1016.0
20260507082508 12 360 3.2 12.9 0.00 0.00 0.00 72 1016.0
20260507082011 12 360 0.0 9.7 0.00 0.00 0.00 72 1015.8
20260507081529 11 360 3.2 9.7 0.00 0.00 0.00 72 1015.9
20260507081009 11 360 1.6 8.0 0.00 0.00 0.00 72 1016.0
20260507080513 11 360 1.6 8.0 0.00 0.00 0.00 73 1015.9
20260507080030 11 360 1.6 14.5 0.00 0.00 0.00 73 1015.9
20260507075509 11 360 1.6 14.5 0.00 0.00 0.00 73 1015.9
20260507075009 11 360 3.2 14.5 0.00 0.00 0.00 74 1015.9
20260507074528 11 360 1.6 8.0 0.00 0.00 0.00 75 1015.9
20260507074012 11 360 1.6 8.0 0.00 0.00 0.00 75 1015.8
20260507073510 11 360 1.6 8.0 0.00 0.00 0.00 76 1015.8
20260507073031 10 360 1.6 6.4 0.00 0.00 0.00 77 1015.8
20260507072510 10 0 0.0 12.9 0.00 0.00 0.00 78 1015.8
20260507072011 10 360 3.2 12.9 0.00 0.00 0.00 78 1015.7
20260507071534 9 360 1.6 8.0 0.00 0.00 0.00 80 1015.7
20260507071011 9 360 1.6 8.0 0.00 0.00 0.00 80 1015.6
20260507070509 8 360 4.8 9.7 0.00 0.00 0.00 81 1015.7
20260507070033 8 360 1.6 9.7 0.00 0.00 0.00 83 1015.8
20260507065509 8 0 1.6 8.0 0.00 0.00 0.00 84 1015.8
20260507065009 7 360 1.6 6.4 0.00 0.00 0.00 85 1015.8
20260507064550 7 360 3.2 6.4 0.00 0.00 0.00 85 1015.7
20260507064013 7 0 0.0 9.7 0.00 0.00 0.00 86 1015.8
20260507063511 7 360 3.2 9.7 0.00 0.00 0.00 86 1015.7
20260507063034 7 0 0.0 4.8 0.00 0.00 0.00 87 1015.7
20260507062512 7 360 0.0 6.4 0.00 0.00 0.00 87 1015.7
20260507062011 6 0 1.6 6.4 0.00 0.00 0.00 87 1015.7
20260507061532 6 0 1.6 6.4 0.00 0.00 0.00 87 1015.6
20260507061012 6 360 1.6 6.4 0.00 0.00 0.00 87 1015.7
20260507060507 6 0 0.0 6.4 0.00 0.00 0.00 87 1015.6
20260507060029 6 360 0.0 4.8 0.00 0.00 0.00 88 1015.6
20260507055508 6 0 0.0 4.8 0.00 0.00 0.00 88 1015.6
20260507055008 6 0 0.0 4.8 0.00 0.00 0.00 88 1015.6
20260507054530 6 0 0.0 4.8 0.00 0.00 0.00 88 1015.6
20260507054009 6 0 0.0 4.8 0.00 0.00 0.00 88 1015.5
20260507053511 6 0 0.0 3.2 0.00 0.00 0.00 88 1015.5
20260507053028 6 0 0.0 1.6 0.00 0.00 0.00 88 1015.5
20260507052509 6 0 0.0 1.6 0.00 0.00 0.00 88 1015.5
20260507052010 6 0 0.0 8.0 0.00 0.00 0.00 88 1015.5
20260507051530 6 0 0.0 8.0 0.00 0.00 0.00 88 1015.4
20260507051009 6 360 1.6 8.0 0.00 0.00 0.00 88 1015.4
20260507050511 6 0 0.0 4.8 0.00 0.00 0.00 88 1015.2
20260507050038 6 360 0.0 4.8 0.00 0.00 0.00 88 1015.4
20260507045512 6 0 0.0 4.8 0.00 0.00 0.00 88 1015.4
20260507045009 6 0 0.0 4.8 0.00 0.00 0.00 88 1015.4
20260507044528 6 0 0.0 6.4 0.00 0.00 0.00 88 1015.3
20260507044013 6 0 0.0 6.4 0.00 0.00 0.00 88 1015.3
20260507043507 6 360 0.0 4.8 0.00 0.00 0.00 88 1015.4
20260507043028 6 360 0.0 3.2 0.00 0.00 0.00 89 1015.3
20260507042509 6 0 0.0 3.2 0.00 0.00 0.00 89 1015.3
20260507042008 6 360 0.0 9.7 0.00 0.00 0.00 89 1015.3
20260507041529 6 0 0.0 9.7 0.00 0.00 0.00 89 1015.1
20260507041010 6 360 3.2 9.7 0.00 0.00 0.00 89 1015.1
20260507040512 6 0 0.0 4.8 0.00 0.00 0.00 89 1015.0
20260507040029 6 0 0.0 4.8 0.00 0.00 0.00 89 1015.1
20260507035511 6 0 0.0 6.4 0.00 0.00 0.00 89 1015.0
20260507035008 6 360 0.0 6.4 0.00 0.00 0.00 89 1015.0
20260507034529 6 0 0.0 4.8 0.00 0.00 0.00 89 1015.0
20260507034008 6 360 0.0 6.4 0.00 0.00 0.00 89 1015.1
20260507033509 6 360 1.6 6.4 0.00 0.00 0.00 89 1015.1
20260507033029 6 360 1.6 4.8 0.00 0.00 0.00 89 1015.1
20260507032510 6 0 1.6 6.4 0.00 0.00 0.00 89 1015.1
20260507032012 6 0 0.0 8.0 0.00 0.00 0.00 89 1015.2
20260507031528 6 360 1.6 9.7 0.00 0.00 0.00 89 1015.2
20260507031007 6 360 3.2 9.7 0.00 0.00 0.00 89 1015.2
20260507030516 6 0 3.2 12.9 0.00 0.00 0.00 89 1015.2
20260507030035 5 360 3.2 12.9 0.00 0.00 0.00 89 1015.2
20260507025508 5 0 1.6 4.8 0.00 0.00 0.00 90 1015.2
20260507025010 5 360 1.6 4.8 0.00 0.00 0.00 90 1015.2
20260507024530 5 360 0.0 4.8 0.00 0.00 0.00 89 1015.2
20260507024011 5 360 0.0 3.2 0.00 0.00 0.00 89 1015.2
20260507023508 5 0 0.0 3.2 0.00 0.00 0.00 89 1015.3
20260507023029 5 0 0.0 4.8 0.00 0.00 0.00 89 1015.3
20260507022509 5 360 1.6 4.8 0.00 0.00 0.00 89 1015.1
20260507022010 5 0 0.0 3.2 0.00 0.00 0.00 89 1015.1
20260507021530 5 0 0.0 3.2 0.00 0.00 0.00 89 1015.2
20260507021013 5 0 0.0 4.8 0.00 0.00 0.00 89 1015.2
20260507020507 5 360 1.6 6.4 0.00 0.00 0.00 89 1015.2
20260507020031 5 360 1.6 6.4 0.00 0.00 0.00 89 1015.2
20260507015511 5 360 1.6 4.8 0.00 0.00 0.00 88 1015.2
20260507015013 5 360 1.6 3.2 0.00 0.00 0.00 88 1015.2
20260507014530 5 0 0.0 3.2 0.00 0.00 0.00 88 1015.3
20260507014012 5 360 0.0 3.2 0.00 0.00 0.00 88 1015.3
20260507013508 5 0 0.0 0.0 0.00 0.00 0.00 87 1015.3
20260507013029 5 0 0.0 1.6 0.00 0.00 0.00 87 1015.3
20260507012509 5 0 0.0 3.2 0.00 0.00 0.00 87 1015.3
20260507012009 5 0 0.0 3.2 0.00 0.00 0.00 87 1015.4
20260507011534 5 0 0.0 3.2 0.00 0.00 0.00 87 1015.4
20260507011008 5 360 0.0 4.8 0.00 0.00 0.00 87 1015.4
20260507010510 5 0 0.0 4.8 0.00 0.00 0.00 87 1015.5
20260507010043 5 360 0.0 4.8 0.00 0.00 0.00 87 1015.5
20260507005509 6 0 0.0 0.0 0.00 0.00 0.00 87 1015.5
20260507005009 6 0 0.0 3.2 0.00 0.00 0.00 87 1015.5
20260507004532 6 0 0.0 4.8 0.00 0.00 0.00 87 1015.5
20260507004009 6 360 0.0 4.8 0.00 0.00 0.00 87 1015.5
20260507003511 6 360 1.6 4.8 0.00 0.00 0.00 87 1015.5
20260507003029 6 360 0.0 3.2 0.00 0.00 0.00 87 1015.6
20260507002514 6 0 0.0 4.8 0.00 0.00 0.00 87 1015.7
20260507002016 6 0 0.0 4.8 0.00 0.00 0.00 87 1015.7
20260507001528 6 360 0.0 3.2 0.00 0.00 0.00 87 1015.8
20260507001010 6 0 0.0 3.2 0.00 0.00 0.00 87 1015.8
20260507000508 6 0 0.0 4.8 0.00 0.00 0.00 87 1015.8
20260507000027 6 0 0.0 8.0 0.00 0.00 0.00 87 1015.7
20260506235509 6 360 1.6 8.0 0.00 0.00 0.00 87 1015.7
20260506235009 6 360 1.6 8.0 0.00 0.00 0.00 87 1015.8
20260506234532 6 360 0.0 4.8 0.00 0.00 0.00 87 1015.9
20260506234009 6 360 1.6 4.8 0.00 0.00 0.00 87 1015.8
20260506233512 6 0 1.6 4.8 0.00 0.00 0.00 87 1015.8
20260506233030 6 360 0.0 4.8 0.00 0.00 0.00 87 1015.7
20260506232508 6 0 0.0 4.8 0.00 0.00 0.00 87 1015.7
20260506232009 6 360 1.6 6.4 0.00 0.00 0.00 87 1015.7
20260506231529 6 360 0.0 9.7 0.00 0.00 0.00 87 1015.7
20260506231015 6 360 3.2 9.7 0.00 0.00 0.00 86 1015.6
20260506230512 6 360 3.2 8.0 0.00 0.00 0.00 86 1015.7
20260506230029 6 360 3.2 9.7 0.00 0.00 0.00 86 1015.7
20260506225511 6 360 3.2 9.7 0.00 0.00 0.00 86 1015.7
20260506225011 6 360 3.2 8.0 0.00 0.00 0.00 86 1015.7
20260506224536 6 360 3.2 8.0 0.00 0.00 0.00 86 1015.7
20260506224011 6 360 3.2 8.0 0.00 0.00 0.00 86 1015.7
20260506223512 6 360 1.6 12.9 0.00 0.00 0.00 86 1015.7
20260506223030 6 360 4.8 12.9 0.00 0.00 0.00 86 1015.7
20260506222511 6 360 4.8 12.9 0.00 0.00 0.00 87 1015.7
20260506222014 5 360 1.6 8.0 0.00 0.00 0.00 86 1015.7
20260506221530 6 360 3.2 8.0 0.00 0.00 0.00 86 1015.6
20260506221009 6 360 1.6 8.0 0.00 0.00 0.00 86 1015.6
20260506220512 6 360 3.2 8.0 0.00 0.00 0.00 86 1015.5
20260506220035 6 360 1.6 8.0 0.00 0.00 0.00 86 1015.6
20260506215515 6 360 3.2 8.0 0.00 0.00 0.00 85 1015.5
20260506215011 6 360 1.6 6.4 0.00 0.00 0.00 85 1015.5
20260506214531 6 360 3.2 6.4 0.00 0.00 0.00 85 1015.4
20260506214013 6 360 1.6 9.7 0.00 0.00 0.00 85 1015.5
20260506213512 6 360 3.2 9.7 0.00 0.00 0.00 85 1015.4
20260506213030 6 360 4.8 9.7 0.00 0.00 0.00 85 1015.4
20260506212510 6 360 3.2 9.7 0.00 0.00 0.00 85 1015.2
20260506212011 6 360 3.2 8.0 0.00 0.00 0.00 85 1015.2
20260506211534 6 360 3.2 8.0 0.00 0.00 0.00 84 1015.1
20260506211012 6 360 3.2 12.9 0.00 0.00 0.00 84 1015.1
20260506210509 6 360 6.4 16.1 0.00 0.00 0.00 84 1015.0
20260506210033 6 360 4.8 16.1 0.00 0.00 0.00 84 1015.0
20260506205513 6 360 4.8 16.1 0.00 0.00 0.00 84 1014.9
20260506205010 6 360 6.4 16.1 0.00 0.00 0.00 83 1014.8
20260506204535 6 360 4.8 16.1 0.00 0.00 0.00 83 1014.8
20260506204012 6 360 6.4 16.1 0.00 0.00 0.00 83 1014.7
20260506203511 7 360 6.4 16.1 0.00 0.00 0.00 83 1014.7
20260506203032 7 360 6.4 16.1 0.00 0.00 0.00 82 1014.7
20260506202509 7 360 6.4 14.5 0.00 0.00 0.00 82 1014.7
20260506202009 7 360 6.4 14.5 0.00 0.00 0.00 82 1014.7
20260506201537 7 360 4.8 12.9 0.00 0.00 0.00 82 1014.6
20260506201012 7 360 6.4 12.9 0.00 0.00 0.00 82 1014.7
20260506200509 7 360 3.2 12.9 0.00 0.00 0.00 81 1014.6
20260506200027 7 360 4.8 14.5 0.00 0.00 0.00 81 1014.5
20260506195510 7 360 4.8 14.5 0.00 0.00 0.00 80 1014.5
20260506195010 7 360 6.4 14.5 0.00 0.00 0.00 80 1014.5
20260506194527 7 360 4.8 16.1 0.00 0.00 0.00 80 1014.4
20260506194009 7 360 6.4 16.1 0.00 0.00 0.00 79 1014.4
20260506193512 8 360 6.4 16.1 0.00 0.00 0.00 79 1014.5
20260506193030 8 360 4.8 17.7 0.00 0.00 0.00 79 1014.5
20260506192511 8 360 4.8 17.7 0.00 0.00 0.00 79 1014.4
20260506192015 8 360 6.4 17.7 0.00 0.00 0.00 78 1014.4
20260506191530 8 360 4.8 17.7 0.00 0.00 0.00 78 1014.5
20260506191008 8 360 4.8 16.1 0.00 0.00 0.00 78 1014.5
20260506190507 8 360 3.2 14.5 0.00 0.00 0.00 78 1014.5
20260506190030 8 360 4.8 14.5 0.00 0.00 0.00 78 1014.5
20260506185510 8 360 3.2 14.5 0.00 0.00 0.00 77 1014.4
20260506185011 8 360 4.8 14.5 0.00 0.00 0.00 77 1014.6
20260506184532 8 360 4.8 14.5 0.00 0.00 0.00 77 1014.6
20260506184010 8 360 6.4 14.5 0.00 0.00 0.00 77 1014.6
20260506183511 8 360 6.4 16.1 0.00 0.00 0.00 76 1014.5
20260506183032 9 360 6.4 16.1 0.00 0.00 0.00 75 1014.6
20260506182509 9 360 6.4 17.7 0.00 0.00 0.00 74 1014.5
20260506182012 10 360 6.4 17.7 0.00 0.00 0.00 73 1014.6
20260506181530 10 360 6.4 17.7 0.00 0.00 0.00 73 1014.5
20260506181012 10 360 6.4 16.1 0.00 0.00 0.00 73 1014.5
20260506180510 10 360 8.0 16.1 0.00 0.00 0.00 72 1014.5
20260506180033 10 360 3.2 14.5 0.00 0.00 0.00 73 1014.5
20260506175512 10 360 4.8 17.7 0.00 0.00 0.00 73 1014.4
20260506175009 10 360 11.3 17.7 0.00 0.00 0.00 73 1014.4
20260506174532 10 360 6.4 16.1 0.00 0.00 0.00 73 1014.3
20260506174009 10 360 4.8 14.5 0.00 0.00 0.00 73 1014.3
20260506173510 9 360 6.4 12.9 0.00 0.00 0.00 73 1014.2
20260506173029 9 360 6.4 12.9 0.00 0.00 0.00 73 1014.1
20260506172510 9 360 4.8 17.7 0.00 0.00 0.00 73 1014.2
20260506172012 9 360 4.8 17.7 0.00 0.00 0.00 72 1014.3
20260506171538 9 360 6.4 17.7 0.00 0.00 0.00 71 1014.3
20260506171011 10 360 6.4 17.7 0.00 0.00 0.00 71 1014.2
20260506170513 10 360 9.7 19.3 0.00 0.00 0.00 71 1014.1
20260506170030 10 360 9.7 27.4 0.00 0.00 0.00 72 1014.1
20260506165512 10 360 8.0 27.4 0.00 0.00 0.00 72 1014.0
20260506165012 10 360 6.4 20.9 0.00 0.00 0.00 71 1014.0
20260506164528 10 360 9.7 20.9 0.00 0.00 0.00 71 1014.1
20260506164011 10 360 6.4 17.7 0.00 0.00 0.00 70 1014.0
20260506163511 10 360 8.0 17.7 0.00 0.00 0.00 69 1014.0
20260506163034 10 360 6.4 17.7 0.00 0.00 0.00 68 1013.9
20260506162512 10 360 6.4 16.1 0.00 0.00 0.00 67 1014.0
20260506162013 10 360 8.0 17.7 0.00 0.00 0.00 66 1014.0
20260506161531 10 360 8.0 17.7 0.00 0.00 0.00 66 1013.9
20260506161012 11 360 8.0 17.7 0.00 0.00 0.00 65 1013.8
20260506160511 11 360 8.0 16.1 0.00 0.00 0.00 66 1013.7
20260506160031 11 360 6.4 16.1 0.00 0.00 0.00 65 1013.8
20260506155511 11 360 6.4 17.7 0.00 0.00 0.00 65 1013.8
20260506155011 11 360 8.0 17.7 0.00 0.00 0.00 66 1013.7
20260506154533 11 360 6.4 14.5 0.00 0.00 0.00 64 1013.6
20260506154013 11 360 6.4 16.1 0.00 0.00 0.00 62 1013.7
20260506153512 11 360 4.8 16.1 0.00 0.00 0.00 63 1013.7
20260506153028 11 360 6.4 16.1 0.00 0.00 0.00 64 1013.7
20260506152515 11 360 6.4 14.5 0.00 0.00 0.00 63 1013.7
20260506152009 11 360 4.8 14.5 0.00 0.00 0.00 64 1013.8
20260506151538 11 360 6.4 17.7 0.00 0.00 0.00 62 1013.8
20260506151012 11 360 6.4 19.3 0.00 0.00 0.00 63 1013.9
20260506150513 11 360 8.0 19.3 0.00 0.00 0.00 63 1014.0
20260506150030 11 360 8.0 19.3 0.00 0.00 0.00 63 1013.9
20260506145511 11 360 6.4 16.1 0.00 0.00 0.00 62 1013.9
20260506145011 11 360 6.4 19.3 0.00 0.00 0.00 61 1013.8
20260506144528 11 360 6.4 19.3 0.00 0.00 0.00 60 1013.9
20260506144013 12 360 8.0 19.3 0.00 0.00 0.00 60 1013.9
20260506143509 12 360 6.4 19.3 0.00 0.00 0.00 59 1013.8
20260506143028 12 360 4.8 19.3 0.00 0.00 0.00 54 1013.8
20260506142511 12 51 1.6 9.7 0.00 0.00 0.00 53 1013.7